FLOCK 2E-7 (41565 NORAD) Tracking and Keplerian Element Data

This shows tracking and keplerian element data for the satellite.

Feedback or suggestion? Click here.




ElementValue
Catalog41565
NameFLOCK 2E-7
Epoch Orbit10601
Epoch Day96.03238924
Epoch Year2018
RAAN296.9742
Inclination51.602
Eccentricity0.0010034
Argument of Perigee275.5763
Mean Anonmoly84.4484
Mean Motion16.38288374
Decay Rate0.09445108
L11 41565U 98067JP 18096.03238924 .09445108 12367-4 82242-3 0 9991
L22 41565 51.6020 296.9742 0010034 275.5763 84.4484 16.38288374106019



Live tracking and technical data element details for FLOCK 2E-7 (NORAD 41565). FLOCK 2E-7 can be tracked NOW for your location showing map with azimuth and elevation plus other details from your city location.







IsCatalogInMostPopularTable: catalog: 41565, numindb: 674
Update: records affected: 1



GetName: 41565 FLOCK 2E-7

Hit Count: updated at: Sat, 17 May 2025 05:15:29 GMT